This demonstration page uses our WeatherBlox Daily Observations layout. Learn more.

Left ArrowRight Arrow

Hourly Observations for July 13, 2015

Temp ( °F °C ) Dew Point ( °F °C ) Humidity (%) Winds ( mph kmh ) Pressure ( in mb ) Visibility ( mi km ) Precip ( " mm )
12:51 am 00:51 Clear 77 25 61 16.1 58 58 N N/A 29.88 1012 10 16.0934 N/A
1:51 am 01:51 Clear 77 25 59 15 54 54 SE 9 15 29.91 1013 10 16.0934 N/A
2:51 am 02:51 Clear 77 25 59 15 54 54 SE 10 17 29.92 1013 10 16.0934 N/A
3:51 am 03:51 Clear 76 24.4 59 15 56 56 ESE 7 11 29.92 1013 10 16.0934 N/A
4:51 am 04:51 Clear 76 24.4 60 15.6 58 58 N N/A 29.91 1013 10 16.0934 N/A
5:51 am 05:51 Sunny 75 23.9 61 16.1 62 62 S 5 7 29.91 1013 10 16.0934 N/A
6:51 am 06:51 Sunny 77 25 62 16.7 60 60 W 5 7 29.92 1013 10 16.0934 N/A
7:51 am 07:51 Sunny 79 26.1 64 17.8 60 60 NW 6 9 29.89 1012 10 16.0934 N/A
8:51 am 08:51 Sunny 83 28.3 59 15 44 44 VRB 5 7 29.91 1013 10 16.0934 N/A
9:51 am 09:51 Sunny 86 30 57 13.9 37 37 N N/A 29.9 1013 10 16.0934 N/A
10:51 am 10:51 Sunny 88 31.1 57 13.9 35 35 VRB 5 7 29.88 1012 10 16.0934 N/A
11:51 am 11:51 Sunny 90 32.2 56 13.3 32 32 N N/A 29.85 1011 10 16.0934 N/A
12:51 pm 12:51 Sunny 93 33.9 55 12.8 28 28 N N/A 29.82 1010 10 16.0934 N/A
1:51 pm 13:51 Sunny 96 35.6 55 12.8 25 25 VRB 3 6 29.78 1008 10 16.0934 N/A
2:51 pm 14:51 Sunny 97 36.1 53 11.7 23 23 N N/A 29.74 1007 10 16.0934 N/A
3:51 pm 15:51 Sunny 96 35.6 54 12.2 24 24 WNW 9 15 29.73 1007 10 16.0934 N/A
4:51 pm 16:51 Sunny 94 34.4 56 13.3 28 28 WNW 12 19 29.97 1015 10 16.0934 N/A
5:51 pm 17:51 Sunny 92 33.3 53 11.7 27 27 NNE 13 20 29.73 1007 10 16.0934 N/A
6:51 pm 18:51 Sunny 89 31.7 52 11.1 28 28 NNE 20 31 29.75 1007 10 16.0934 N/A
7:51 pm 19:51 Clear 87 30.6 53 11.7 31 31 NNE 13 20 29.76 1008 10 16.0934 N/A
8:51 pm 20:51 Clear 85 29.4 54 12.2 35 35 SW 6 9 29.8 1009 10 16.0934 N/A
9:51 pm 21:51 Mostly Cloudy 81 27.2 57 13.9 44 44 SSE 22 35 29.85 1011 10 16.0934 N/A
10:51 pm 22:51 Clear 78 25.6 57 13.9 48 48 E 9 15 29.86 1011 10 16.0934 N/A
11:51 pm 23:51 Mostly Clear 78 25.6 55 12.8 45 45 ENE 10 17 29.9 1013 10 16.0934 N/A

Powered by AerisWeather